CMB57 MUGM-KJAX

Flight info

Callsign CMB57
Flight time N/A
Altitude 34000
Route GTMOD7 BYGON DCT ACMEE DCT HODGY DCT OCTAL DCT ORL/N0489F350 DCT HAINY QUBEN2
Aircraft B762/H-SDFGIRWY/S

Departure

Time N/A
Airport Leeward Point Field (MUGM)

Arrival

Time 2026-05-03 20:45
Airport Jacksonville International Airport (KJAX)
Time Latitude Longitude Altitude Speed Heading
2026-05-03 20:15 28.47170 -81.30046 34092 ft 458 kts 324°
2026-05-03 20:15 28.53097 -81.32807 33878 ft 470 kts 330°
2026-05-03 20:15 28.56340 -81.33706 33313 ft 486 kts 340°
2026-05-03 20:16 28.59698 -81.34061 32615 ft 496 kts 346°
2026-05-03 20:16 28.63155 -81.34251 31935 ft 497 kts 347°
2026-05-03 20:16 28.66598 -81.34481 31209 ft 497 kts 347°
2026-05-03 20:16 28.70058 -81.34657 30519 ft 497 kts 349°
2026-05-03 20:17 28.73524 -81.34705 29775 ft 499 kts 350°
2026-05-03 20:17 28.76983 -81.34868 29009 ft 497 kts 348°
2026-05-03 20:17 28.80425 -81.35123 28214 ft 497 kts 348°
2026-05-03 20:17 28.83308 -81.35352 27532 ft 498 kts 348°
2026-05-03 20:18 28.84884 -81.35474 27150 ft 498 kts 348°
2026-05-03 20:18 28.87990 -81.35702 26386 ft 499 kts 349°
2026-05-03 20:18 28.91458 -81.35941 25610 ft 498 kts 349°
2026-05-03 20:18 28.94853 -81.36161 25035 ft 492 kts 349°
2026-05-03 20:19 28.98196 -81.36376 24638 ft 483 kts 349°
2026-05-03 20:19 29.01047 -81.36561 24441 ft 472 kts 349°
2026-05-03 20:19 29.04212 -81.36774 24373 ft 469 kts 349°
2026-05-03 20:19 29.07527 -81.37011 24177 ft 479 kts 349°
2026-05-03 20:20 29.10869 -81.37250 24131 ft 484 kts 349°
2026-05-03 20:20 29.14128 -81.37478 24113 ft 485 kts 349°
2026-05-03 20:20 29.17497 -81.37708 24102 ft 483 kts 349°
2026-05-03 20:20 29.20730 -81.37928 24103 ft 482 kts 349°
2026-05-03 20:21 29.24079 -81.38158 24108 ft 482 kts 349°
2026-05-03 20:21 29.27428 -81.38389 24111 ft 482 kts 349°
2026-05-03 20:21 29.30076 -81.38570 24114 ft 482 kts 349°
2026-05-03 20:21 29.33397 -81.38790 24099 ft 470 kts 349°
2026-05-03 20:22 29.35337 -81.38914 24099 ft 459 kts 349°
2026-05-03 20:22 29.38402 -81.39112 23928 ft 447 kts 349°
2026-05-03 20:22 29.41509 -81.39324 22956 ft 452 kts 349°
2026-05-03 20:22 29.44698 -81.39552 21809 ft 463 kts 349°
2026-05-03 20:23 29.47773 -81.39764 21081 ft 464 kts 350°
2026-05-03 20:23 29.50977 -81.39975 20567 ft 458 kts 350°
2026-05-03 20:23 29.53429 -81.40232 20147 ft 446 kts 342°
2026-05-03 20:23 29.56196 -81.41379 19502 ft 422 kts 324°
2026-05-03 20:24 29.58523 -81.43243 18717 ft 408 kts 312°
2026-05-03 20:24 29.60325 -81.45300 17948 ft 402 kts 308°
2026-05-03 20:24 29.62223 -81.47614 17348 ft 392 kts 308°
2026-05-03 20:24 29.64044 -81.49818 16785 ft 386 kts 308°
2026-05-03 20:25 29.65626 -81.51700 16236 ft 386 kts 309°
2026-05-03 20:25 29.67363 -81.53746 15722 ft 384 kts 309°
2026-05-03 20:25 29.69178 -81.55863 15188 ft 381 kts 310°
2026-05-03 20:25 29.70258 -81.57109 14875 ft 380 kts 310°
2026-05-03 20:26 29.72122 -81.59254 14339 ft 377 kts 310°
2026-05-03 20:26 29.73968 -81.61383 13802 ft 375 kts 310°
2026-05-03 20:26 29.75872 -81.63427 13255 ft 377 kts 319°
2026-05-03 20:26 29.78249 -81.64757 12835 ft 383 kts 337°
2026-05-03 20:27 29.80828 -81.65362 12536 ft 385 kts 348°
2026-05-03 20:27 29.83524 -81.65579 12223 ft 380 kts 351°
2026-05-03 20:27 29.86096 -81.65736 11909 ft 373 kts 351°
2026-05-03 20:27 29.88671 -81.65921 11594 ft 366 kts 350°
2026-05-03 20:28 29.91218 -81.66136 11299 ft 359 kts 350°
2026-05-03 20:28 29.93677 -81.66356 11010 ft 350 kts 350°
2026-05-03 20:28 29.96040 -81.66696 10710 ft 334 kts 346°
2026-05-03 20:28 29.98246 -81.67161 10448 ft 320 kts 344°
2026-05-03 20:29 30.00414 -81.67676 10182 ft 308 kts 344°
2026-05-03 20:29 30.02452 -81.68151 9963 ft 296 kts 346°
2026-05-03 20:29 30.04446 -81.68581 9961 ft 282 kts 346°
2026-05-03 20:29 30.06376 -81.68971 9558 ft 287 kts 347°
2026-05-03 20:30 30.08374 -81.69325 9283 ft 289 kts 350°
2026-05-03 20:30 30.10365 -81.69594 9061 ft 287 kts 353°
2026-05-03 20:30 30.12325 -81.69800 8808 ft 286 kts 354°
2026-05-03 20:30 30.14322 -81.70001 8557 ft 283 kts 354°
2026-05-03 20:31 30.16251 -81.70209 8338 ft 281 kts 353°
2026-05-03 20:31 30.18188 -81.70448 8114 ft 280 kts 353°
2026-05-03 20:31 30.20118 -81.70684 7886 ft 279 kts 353°
2026-05-03 20:31 30.22043 -81.70913 7660 ft 277 kts 353°
2026-05-03 20:32 30.23955 -81.71141 7436 ft 276 kts 353°
2026-05-03 20:32 30.25706 -81.71340 7239 ft 274 kts 354°
2026-05-03 20:32 30.27601 -81.71558 7015 ft 273 kts 354°
2026-05-03 20:32 30.29485 -81.71787 6771 ft 272 kts 348°
2026-05-03 20:33 30.31217 -81.72622 6561 ft 270 kts 328°
2026-05-03 20:33 30.32756 -81.73849 6362 ft 269 kts 322°
2026-05-03 20:33 30.34113 -81.75334 6154 ft 269 kts 314°
2026-05-03 20:33 30.35382 -81.76935 5938 ft 270 kts 312°
2026-05-03 20:34 30.36605 -81.78573 5757 ft 269 kts 311°
2026-05-03 20:34 30.37819 -81.80217 5596 ft 267 kts 311°
2026-05-03 20:34 30.39026 -81.81855 5382 ft 268 kts 311°
2026-05-03 20:34 30.40232 -81.83498 5220 ft 267 kts 311°
2026-05-03 20:35 30.41433 -81.85143 5040 ft 267 kts 311°
2026-05-03 20:35 30.42629 -81.86786 4896 ft 267 kts 311°
2026-05-03 20:35 30.43828 -81.88432 4733 ft 266 kts 311°
2026-05-03 20:35 30.45018 -81.90066 4587 ft 265 kts 311°
2026-05-03 20:36 30.46205 -81.91694 4464 ft 264 kts 311°
2026-05-03 20:36 30.47386 -81.93318 4345 ft 262 kts 311°
2026-05-03 20:36 30.48557 -81.94933 4259 ft 261 kts 311°
2026-05-03 20:36 30.49729 -81.96555 4093 ft 265 kts 311°
2026-05-03 20:37 30.50920 -81.98199 3926 ft 268 kts 311°
2026-05-03 20:37 30.52129 -81.99866 3684 ft 270 kts 311°
2026-05-03 20:37 30.53336 -82.01533 3437 ft 270 kts 311°
2026-05-03 20:37 30.54539 -82.03195 3180 ft 268 kts 311°
2026-05-03 20:38 30.55733 -82.04851 2935 ft 266 kts 311°
2026-05-03 20:38 30.56940 -82.06473 2671 ft 264 kts 319°
2026-05-03 20:38 30.58507 -82.07504 2393 ft 259 kts 348°
2026-05-03 20:38 30.60252 -82.07509 2130 ft 249 kts 18°
2026-05-03 20:39 30.61670 -82.06522 2028 ft 234 kts 50°
2026-05-03 20:39 30.62386 -82.04885 2001 ft 226 kts 80°
2026-05-03 20:39 30.62444 -82.03048 2030 ft 233 kts 93°
2026-05-03 20:39 30.62303 -82.01160 2042 ft 236 kts 97°
2026-05-03 20:40 30.61917 -81.99317 2016 ft 233 kts 104°
2026-05-03 20:40 30.61510 -81.97494 2042 ft 232 kts 103°
2026-05-03 20:40 30.61114 -81.95679 2006 ft 232 kts 103°
2026-05-03 20:40 30.60718 -81.93868 2008 ft 231 kts 103°
2026-05-03 20:41 30.60325 -81.92064 2000 ft 230 kts 103°
2026-05-03 20:41 30.59933 -81.90270 1998 ft 227 kts 103°
2026-05-03 20:41 30.59551 -81.88529 1991 ft 217 kts 104°
2026-05-03 20:41 30.59214 -81.86836 2007 ft 214 kts 101°
2026-05-03 20:42 30.58923 -81.85143 2031 ft 215 kts 100°
2026-05-03 20:42 30.58633 -81.83434 2015 ft 217 kts 102°
2026-05-03 20:42 30.57916 -81.81892 2017 ft 219 kts 128°
2026-05-03 20:42 30.56944 -81.80528 2000 ft 217 kts 128°
2026-05-03 20:43 30.56003 -81.79242 1993 ft 201 kts 129°
2026-05-03 20:43 30.55119 -81.78051 1820 ft 190 kts 129°
2026-05-03 20:43 30.54287 -81.76931 1636 ft 177 kts 129°
2026-05-03 20:43 30.53505 -81.75874 1373 ft 166 kts 129°
2026-05-03 20:44 30.52781 -81.74897 1185 ft 159 kts 130°
2026-05-03 20:44 30.52065 -81.73928 954 ft 162 kts 129°
2026-05-03 20:44 30.51314 -81.72914 738 ft 164 kts 129°
2026-05-03 20:44 30.50579 -81.71922 512 ft 161 kts 129°
2026-05-03 20:45 30.49853 -81.70941 305 ft 158 kts 130°
2026-05-03 20:45 30.49174 -81.70024 68 ft 146 kts 129°
2026-05-03 20:45 30.48578 -81.69220 31 ft 107 kts 131°
2026-05-03 20:45 30.48233 -81.68754 35 ft 44 kts 130°
2026-05-03 20:46 30.48137 -81.68613 32 ft 12 kts 102°
2026-05-03 20:46 30.48186 -81.68533 34 ft 13 kts 39°
2026-05-03 20:46 30.48189 -81.68530 32 ft 0 kts 39°
2026-05-03 20:46 30.48190 -81.68529 34 ft 1 kts 39°
2026-05-03 20:47 30.48226 -81.68503 33 ft 8 kts 13°
2026-05-03 20:47 30.48277 -81.68522 35 ft 8 kts 313°
2026-05-03 20:47 30.48319 -81.68578 34 ft 12 kts 311°
2026-05-03 20:47 30.48385 -81.68668 34 ft 18 kts 310°
2026-05-03 20:48 30.48474 -81.68789 34 ft 22 kts 310°
2026-05-03 20:48 30.48585 -81.68938 32 ft 27 kts 310°
2026-05-03 20:48 30.48716 -81.69114 32 ft 31 kts 310°
2026-05-03 20:48 30.48836 -81.69278 32 ft 23 kts 310°
2026-05-03 20:49 30.48939 -81.69415 33 ft 23 kts 311°
2026-05-03 20:49 30.49044 -81.69558 37 ft 23 kts 310°
2026-05-03 20:49 30.49151 -81.69700 36 ft 25 kts 311°
2026-05-03 20:49 30.49270 -81.69863 36 ft 27 kts 311°
2026-05-03 20:50 30.49316 -81.69954 35 ft 12 kts 264°
2026-05-03 20:50 30.49258 -81.70026 34 ft 13 kts 219°
2026-05-03 20:50 30.49172 -81.70106 37 ft 17 kts 213°
2026-05-03 20:50 30.49068 -81.70165 40 ft 17 kts 205°
2026-05-03 20:51 30.48964 -81.70223 39 ft 16 kts 206°
2026-05-03 20:51 30.48882 -81.70261 41 ft 0 kts 182°